Location: Amsterdam
(30.7274°N, 84.4357°W)
Time: 07:16:47
(UTC+00:00)

Transit 2A Rocket - Pass Details

Date: 20 February 2026
Orbit: 583 x 900 km, 66.7° (Epoch: 11 March)

Event Time Altitude Azimuth Distance (km) Brightness Sun altitude
Rises 05:58:56 0° 342° (NNW) 3,292 - -70.1°
Reaches altitude 10° 06:01:36 10° 350° (N) 2,307 - -70.0°
Maximum altitude 06:06:32 40° 60° (ENE) 1,047 - -69.9°
Drops below altitude 10° 06:11:01 10° 130° (SE) 2,099 - -69.7°
Sets 06:13:20 0° 138° (SE) 2,962 - -69.5°
